{"data":{"norad_id":63113,"intl_designator":"2025-039K","name":"STARLINK-11598 [DTC]","alt_names":[],"object_type":"PAYLOAD","status":"ACTIVE","operator":null,"country":"US","launch_date":"2025-02-27","launch_site_code":"AFETR","launch_vehicle":null,"mission":null,"orbit_class":"UNKNOWN","rcs_meters":null,"size_class":null,"mass_kg":null,"dimensions":null,"purposes":["comms"],"wikipedia_slug":null,"has_3d_model":false,"image_url":null,"decayed_at":null,"tle_current":{"epoch":"2026-05-25T01:06:30.378816Z","epoch_age_seconds":64354,"freshness":"FRESH","line1":"1 63113U 25039K   26145.04618494  .00160580  00000+0  12309-2 0  9993","line2":"2 63113  43.0006 136.6549 0003376 291.5249  68.5258 15.70835837 71621","mean_motion":15.70835837,"eccentricity":0.0003376,"inclination_deg":43.0006,"raan_deg":136.6549,"arg_perigee_deg":291.5249,"mean_anomaly_deg":68.5258,"bstar":0.0012309,"rev_number":7162,"period_min":91.670941423779,"perigee_km":354.23334442699,"apogee_km":358.78057602893,"semimajor_km":6734.643960228,"source":"CELESTRAK","updated_at":"2026-05-25T13:38:19.908838Z"}}}